Location: Casteau
(50.5142°N, 4.0161°E)
Time: 05:35:31
(UTC+00:00)

In-Cosmos 22 - Pass Details

Date: 18 September 2020
Orbit: 785 x 877 km, 81.2° (Epoch: 22 October)

Event Time Altitude Azimuth Distance (km) Brightness Sun altitude
Rises 19:07:34 0° 348° (NNW) 3,290 7.7 -12.9°
Reaches altitude 10° 19:09:57 10° 350° (N) 2,357 6.9 -13.2°
Maximum altitude 19:15:15 77° 77° (ENE) 814 4.0 -14.0°
Drops below altitude 10° 19:20:35 10° 164° (SSE) 2,363 6.2 -14.8°
Enters shadow 19:21:27 - 164° (SSE) 2,705 6.5 -15.0°
